Date,TemperatureHighF,TemperatureAvgF,TemperatureLowF,DewpointHighF,DewpointAvgF,DewpointLowF,HumidityHigh,HumidityAvg,HumidityLow,PressureMaxIn,PressureMinIn,WindSpeedMaxMPH,WindSpeedAvgMPH,GustSpeedMaxMPH,PrecipitationSumIn
2013-1-1,34.0,23.5,16.0,18.0,10.5,7.0,67,57,42,30.19,30.03,25,12,33,0.00
2013-1-2,34.0,25.7,14.0,10.0,5.9,-2.0,53,42,31,30.26,30.16,22,11,30,0.00
2013-1-3,34.0,22.9,9.0,7.0,1.9,-2.0,60,40,28,30.24,30.07,27,14,37,0.00
2013-1-4,37.0,26.0,18.0,12.0,5.6,0.0,57,41,32,30.10,30.02,17,-5,24,0.00
2013-1-5,37.0,27.2,16.0,16.0,9.1,1.0,62,46,37,30.21,30.05,21,10,29,0.00
2013-1-6,43.0,32.5,27.0,12.0,9.5,7.0,49,38,28,30.05,29.85,30,14,35,0.00
2013-1-7,43.0,31.9,23.0,18.0,14.4,10.0,58,48,33,29.89,29.66,15,7,25,0.00
2013-1-8,48.0,39.1,28.0,19.0,14.9,10.0,51,37,21,29.98,29.68,29,-44,41,0.00
2013-1-9,54.0,44.2,28.0,23.0,18.6,12.0,50,36,25,29.97,29.70,23,17,32,0.00
2013-1-10,46.0,35.5,18.0,25.0,17.9,9.0,73,49,31,29.70,29.52,20,11,28,0.00
2013-1-11,18.0,10.4,7.0,9.0,2.0,-4.0,78,68,60,30.04,29.67,21,10,25,0.00
2013-1-12,12.0,7.6,1.0,1.0,-2.1,-8.0,71,63,55,30.06,30.02,15,7,20,0.00
2013-1-13,16.0,7.6,1.0,0.0,-5.2,-9.0,71,55,44,30.11,30.06,20,10,27,0.00
2013-1-14,18.0,11.8,7.0,0.0,-5.5,-8.0,55,45,37,30.09,29.96,23,15,29,0.00
2013-1-15,30.0,21.7,18.0,14.0,6.4,0.0,62,51,44,30.09,29.96,25,18,37,0.00
2013-1-16,36.0,28.5,25.0,18.0,12.5,9.0,58,51,43,30.27,30.07,23,14,38,0.00
2013-1-17,43.0,31.2,21.0,18.0,13.2,10.0,62,48,33,30.29,30.01,25,15,33,0.00
2013-1-18,46.0,38.5,32.0,18.0,14.8,12.0,47,37,30,30.01,29.89,23,14,33,0.00
2013-1-19,39.0,31.8,23.0,21.0,14.4,9.0,68,49,32,30.20,29.99,10,5,0,0.00
2013-1-20,37.0,23.0,12.0,16.0,10.9,3.0,78,60,37,30.36,30.07,14,6,20,0.00
2013-1-21,34.0,20.6,12.0,18.0,10.5,5.0,78,64,51,30.22,29.96,9,2,0,0.00
2013-1-22,46.0,31.7,21.0,16.0,11.4,9.0,58,44,26,30.05,29.96,16,7,22,0.00
2013-1-23,34.0,22.5,18.0,12.0,9.9,9.0,72,58,37,30.12,29.88,9,3,0,0.00
2013-1-24,54.0,40.6,18.0,25.0,16.3,9.0,67,38,25,30.06,29.83,32,9,38,0.00
2013-1-25,52.0,36.7,23.0,25.0,18.5,10.0,68,49,31,30.06,29.90,21,7,27,0.00
2013-1-26,54.0,42.1,34.0,25.0,20.0,16.0,51,41,27,29.91,29.68,16,6,24,0.00
2013-1-27,36.0,31.9,27.0,25.0,20.0,16.0,68,61,47,29.81,29.68,14,3,20,0.00
2013-1-28,37.0,27.5,18.0,21.0,15.2,5.0,79,62,27,29.82,29.71,18,-9,27,0.00
2013-1-29,27.0,19.0,3.0,14.0,5.4,-6.0,67,55,38,30.09,29.69,18,7,24,0.00
2013-1-30,28.0,21.4,7.0,21.0,10.9,-2.0,79,64,44,29.97,29.79,20,-7,28,0.00
2013-1-31,28.0,18.3,3.0,18.0,8.8,-6.0,71,65,53,30.12,29.98,22,-30,28,0.00